Ardabil, Iran

2:45 AM +0330 on October 23, 2019 (GMT +0330)
Ardabil

Weather History for OITL - August, 2019

Change the Weather History Date:

Sunday, August 18, 2019

  Actual Average (WUND) Record (WUND)
Temperature  
Mean Temperature 64 °F -  
Max Temperature 82 °F - - (-1)
Min Temperature 46 °F - - (-1)
Degree Days  
Heating Degree Days 1    
Growing Degree Days 14 (Base 50)    
Moisture  
Dew Point 40 °F    
Average Humidity 39    
Maximum Humidity 71    
Minimum Humidity 23    
Precipitation  
Precipitation 0.00 in - - ()
Sea Level Pressure  
Sea Level Pressure 29.99 in    
Wind  
Wind Speed 11 mph ()    
Max Wind Speed 33 mph    
Max Gust Speed 38 mph    
Visibility 6.2 miles    
Events      
Averages and records for this station are not official NWS values.
T = Trace of Precipitation, MM = Missing Value Source: Averaged Metar Reports

Daily Weather History Graph

Daily Weather History Graph

Search for Another Location

Airport or City:

Astronomy

Aug. 18, 2019 Rise Set
Actual Time 6:33 AM +0430 8:06 PM +0430
Civil Twilight 6:04 AM +0430 8:34 PM +0430
Nautical Twilight 5:31 AM +0430 9:08 PM +0430
Astronomical Twilight 4:55 AM +0430 9:44 PM +0430
Moon 9:53 PM +0430 (8/18) 8:54 AM +0430 (8/18)
Length of Visible Light 14h 29m
Length of Day
13h 33m
Waning Gibbous, 93% of the Moon is Illuminated
Aug 18
Waning Gibbous
Aug 23
Last Quarter
Aug 30
New
Sep 6
First Quarter
Sep 14
Full

Hourly Weather History & Observations

Time (+0430) Temp. Windchill Dew Point Humidity Pressure Visibility Wind Dir Wind Speed Gust Speed Precip Events Conditions
12:20 AM 53.6 °F - 39.2 °F 58% 29.95 in - SSW 6.9 mph - N/A   Clear
1:20 AM 55.4 °F - 39.2 °F 54% 29.98 in - South 6.9 mph - N/A   Clear
2:20 AM 51.8 °F - 37.4 °F 58% 29.98 in - East 6.9 mph - N/A   Clear
3:20 AM 50.0 °F - 37.4 °F 62% 29.98 in - NW 4.6 mph - N/A   Clear
4:20 AM 48.2 °F - 39.2 °F 71% 29.98 in 6.2 mi Calm Calm - N/A   Partly Cloudy
5:21 AM 50.0 °F - 39.2 °F 66% 30.01 in 6.2 mi SE 4.6 mph - N/A   Partly Cloudy
6:20 AM 46.4 °F 44.3 °F 37.4 °F 71% 30.01 in 6.2 mi SE 4.6 mph - N/A   Partly Cloudy
6:30 AM 46.4 °F 44.3 °F 37.4 °F 71% 30.01 in 6.2 mi SE 4.6 mph - N/A   Partly Cloudy
7:22 AM 48.2 °F - 37.4 °F 66% 30.01 in 6.2 mi Variable 2.3 mph - N/A   Partly Cloudy
7:30 AM 48.2 °F - 37.4 °F 66% 30.01 in 6.2 mi Variable 2.3 mph - N/A   Partly Cloudy
8:20 AM 59.0 °F - 42.8 °F 55% 30.01 in 6.2 mi SSW 4.6 mph - N/A   Partly Cloudy
8:30 AM 59.0 °F - 42.8 °F 55% 30.01 in 6.2 mi SSW 4.6 mph - N/A   Partly Cloudy
9:00 AM 62.6 °F - 42.8 °F 48% 30.01 in 6.2 mi South 4.6 mph - N/A   Partly Cloudy
9:22 AM 66.2 °F - 44.6 °F 46% 30.01 in 6.2 mi South 4.6 mph - N/A   Partly Cloudy
10:00 AM 69.8 °F - 42.8 °F 38% 30.01 in 6.2 mi SSE 6.9 mph - N/A   Partly Cloudy
10:21 AM 73.4 °F - 41.0 °F 31% 30.01 in - ESE 6.9 mph - N/A   Clear
10:30 AM 73.4 °F - 41.0 °F 31% 30.01 in - ESE 6.9 mph - N/A   Clear
11:00 AM 77.0 °F - 37.4 °F 24% 30.01 in - East 6.9 mph - N/A   Clear
11:20 AM 78.8 °F - 39.2 °F 24% 30.01 in - ENE 18.4 mph - N/A   Clear
11:30 AM 78.8 °F - 39.2 °F 24% 30.01 in - ENE 18.4 mph - N/A   Clear
12:23 PM 80.6 °F - 39.2 °F 23% 30.01 in 6.2 mi East 19.6 mph - N/A   Partly Cloudy
12:30 PM 80.6 °F - 39.2 °F 23% 30.01 in 6.2 mi East 19.6 mph - N/A   Partly Cloudy
1:22 PM 82.4 °F - 42.8 °F 25% 29.98 in 6.2 mi ENE 24.2 mph - N/A   Partly Cloudy
1:30 PM 82.4 °F - 42.8 °F 25% 29.98 in 6.2 mi ENE 24.2 mph - N/A   Partly Cloudy
2:20 PM 82.4 °F - 42.8 °F 25% 29.98 in 6.2 mi ENE 28.8 mph - N/A   Partly Cloudy
2:30 PM 82.4 °F - 42.8 °F 25% 29.98 in 6.2 mi ENE 28.8 mph - N/A   Partly Cloudy
3:21 PM 82.4 °F - 44.6 °F 26% 29.95 in 6.2 mi ENE 28.8 mph - N/A   Partly Cloudy
3:30 PM 82.4 °F - 44.6 °F 26% 29.95 in 6.2 mi ENE 28.8 mph - N/A   Partly Cloudy
4:20 PM 80.6 °F - 41.0 °F 24% 29.95 in 6.2 mi ENE 24.2 mph 38.0 mph N/A   Partly Cloudy
5:22 PM 77.0 °F - 39.2 °F 26% 29.95 in 6.2 mi ENE 33.4 mph - N/A   Partly Cloudy
5:30 PM 77.0 °F - 39.2 °F 26% 29.95 in 6.2 mi ENE 33.4 mph - N/A   Partly Cloudy
6:21 PM 75.2 °F - 37.4 °F 25% 29.95 in 6.2 mi ENE 33.4 mph - N/A   Partly Cloudy
6:30 PM 75.2 °F - 37.4 °F 25% 29.95 in 6.2 mi ENE 33.4 mph - N/A   Partly Cloudy
7:22 PM 71.6 °F - 37.4 °F 29% 29.98 in 6.2 mi ENE 26.5 mph - N/A   Partly Cloudy
7:30 PM 71.6 °F - 37.4 °F 29% 29.98 in 6.2 mi ENE 26.5 mph - N/A   Partly Cloudy
8:21 PM 69.8 °F - 35.6 °F 28% 29.98 in 6.2 mi ENE 19.6 mph - N/A   Partly Cloudy
9:21 PM 68.0 °F - 33.8 °F 28% 30.01 in - East 13.8 mph - N/A   Clear
10:22 PM 66.2 °F - 35.6 °F 32% 30.04 in 6.2 mi East 9.2 mph - N/A   Partly Cloudy
11:22 PM 60.8 °F - 35.6 °F 39% 30.04 in 6.2 mi SE 9.2 mph - N/A   Partly Cloudy